{"data":{"norad_id":58042,"intl_designator":"2023-156Q","name":"STARLINK-30563","alt_names":[],"object_type":"PAYLOAD","status":"ACTIVE","operator":null,"country":"US","launch_date":"2023-10-09","launch_site_code":"AFWTR","launch_vehicle":null,"mission":null,"orbit_class":"UNKNOWN","rcs_meters":null,"size_class":null,"mass_kg":null,"dimensions":null,"purposes":["comms"],"wikipedia_slug":null,"has_3d_model":false,"image_url":null,"decayed_at":null,"tle_current":{"epoch":"2026-05-25T04:38:21.319584Z","epoch_age_seconds":52378,"freshness":"FRESH","line1":"1 58042U 23156Q   26145.19330231  .00000580  00000+0  31712-4 0  9996","line2":"2 58042  53.1614  80.4036 0001196  92.4568 267.6570 15.30193459148065","mean_motion":15.30193459,"eccentricity":0.0001196,"inclination_deg":53.1614,"raan_deg":80.4036,"arg_perigee_deg":92.4568,"mean_anomaly_deg":267.657,"bstar":3.1712e-5,"rev_number":14806,"period_min":94.105747971309,"perigee_km":474.41493649254,"apogee_km":476.0542629792,"semimajor_km":6853.3715997359,"source":"CELESTRAK","updated_at":"2026-05-25T13:38:18.496890Z"}}}